Regional Weather Roundup
Issued by NWS

Home | Current Version | Previous Version | Graphics & Text | Print | Product List | Glossary On
Versions: 1 2 3 4 5 6 7 8 9 10 11 12 13 14 15 16 17 18 19 20 21 22 23 24 25 26 27 28 29 30 31 32 33 34 35 36 37 38 39 40 41 42 43 44 45 46 47 48 49 50
000
ASUS43 KLMK 252202
RWRKY
KENTUCKY REGIONAL WEATHER ROUNDUP
NATIONAL WEATHER SERVICE LOUISVILLE KY
600 PM EDT TUE JUL 25 2017

NOTE "FAIR" INDICATES FEW OR NO CLOUDS BELOW 12,000 FEET
WITH NO SIGNIFICANT WEATHER AND/OR OBSTRUCTIONS TO VISIBILITY.

KYZ001>023-026-027-061>063-070>075-252300-
WESTERN AND SOUTH CENTRAL KENTUCKY

CITY           SKY/WX    TMP DP  RH WIND       PRES   REMARKS
PADUCAH        PTSUNNY   79  73  82 SE5       30.06F
HENDERSON      MOSUNNY   86  72  62 NE12      30.09F HX  92
OWENSBORO      SUNNY     88  72  58 NE8       30.09F HX  94
HOPKINSVILLE   CLOUDY    85  73  68 W3        30.06F HX  92
BOWLING GREEN  PTSUNNY   90  71  53 E7        30.08S HX  96
GLASGOW        NOT AVBL
$$

KYZ024-025-028>034-038-045-046-053-252300-
NORTH CENTRAL KENTUCKY

CITY           SKY/WX    TMP DP  RH WIND       PRES   REMARKS
LOUISVILLE/SDF MOSUNNY   88  65  46 NE6       30.11F HX  90
LOUISVILLE/LOU SUNNY     85  65  51 N5        30.13S
FORT KNOX      MOSUNNY   84  67  55 N3        30.11F
$$

KYZ035>037-039>044-047>052-055>060-089>105-252300-
NORTHEAST KENTUCKY

CITY           SKY/WX    TMP DP  RH WIND       PRES   REMARKS
LEXINGTON      MOSUNNY   83  62  49 NE8       30.15S
COVINGTON      SUNNY     80  61  52 E12       30.15F
FRANKFORT      MOSUNNY   84  62  47 NE7       30.13F
$$

KYZ054-064>069-076>088-106>120-252300-
SOUTHEAST KENTUCKY

CITY           SKY/WX    TMP DP  RH WIND       PRES   REMARKS
JACKSON        SUNNY     82  66  58 CALM      30.15F
LONDON         MOSUNNY   87  62  43 NE8       30.13S
SOMERSET       MOSUNNY   84  63  48 CALM      30.13S
MIDDLESBORO    SUNNY     87  69  53 N8        30.11S HX  91
MONTICELLO     CLEAR     85  70  60 N13       30.14S
$$





USA.gov is the U.S. government's official web portal to all federal, state and local government web resources and services.